This is the latest recevied weather packets stored in our database for station/object K0CVS. If no packets are shown the sender has not sent any weather packets the latest 10 day(s).
| Time | Temp. | Humidity | Pressure | Rain* | Wind** | Luminosity | Snow |
|---|---|---|---|---|---|---|---|
| 1777870915 | 18.33° C | 53% | 1008.2 hPa | 0 mm | - | 0 W/m² | - |
| 1777870612 | 18.33° C | 55% | 1008.1 hPa | 0 mm | - | 0 W/m² | - |
| 1777870312 | 18.33° C | 54% | 1008.1 hPa | 0 mm | - | 0 W/m² | - |
| 1777870010 | 18.33° C | 54% | 1007.9 hPa | 0 mm | - | 0 W/m² | - |
| 1777869706 | 18.89° C | 54% | 1008.1 hPa | 0 mm | - | 0 W/m² | - |
| 1777869403 | 18.89° C | 53% | 1008.1 hPa | 0 mm | - | 0 W/m² | - |
| 1777869101 | 18.89° C | 53% | 1008.2 hPa | 0 mm | - | 0 W/m² | - |
| 1777868798 | 18.89° C | 53% | 1008 hPa | 0 mm | - | 0 W/m² | - |
| 1777868494 | 18.89° C | 53% | 1007.9 hPa | 0 mm | - | 0 W/m² | - |
| 1777868190 | 18.33° C | 54% | 1008.1 hPa | 0 mm | - | 0 W/m² | - |
| 1777867887 | 18.33° C | 55% | 1007.9 hPa | 0 mm | - | 0 W/m² | - |
| 1777867584 | 18.33° C | 59% | 1007.5 hPa | 0 mm | - | 0 W/m² | - |
| 1777867281 | 18.33° C | 60% | 1007.7 hPa | 0 mm | - | 0 W/m² | - |
| 1777866978 | 18.33° C | 59% | 1007.9 hPa | 0 mm | - | 0 W/m² | - |
| 1777866674 | 18.33° C | 58% | 1007.8 hPa | 0 mm | - | 0 W/m² | - |
| 1777866372 | 18.33° C | 56% | 1007.9 hPa | 0 mm | - | 0 W/m² | - |
| 1777866068 | 18.89° C | 55% | 1007.9 hPa | 0 mm | - | 0 W/m² | - |
| 1777865767 | 18.89° C | 54% | 1008 hPa | 0 mm | - | 0 W/m² | - |
| 1777865463 | 19.44° C | 54% | 1007.8 hPa | 0 mm | - | 0 W/m² | - |
| 1777865160 | 19.44° C | 53% | 1008.2 hPa | 0 mm | - | 0 W/m² | - |
| 1777864857 | 19.44° C | 52% | 1008 hPa | 0 mm | - | 0 W/m² | - |
| 1777864554 | 19.44° C | 52% | 1008 hPa | 0 mm | - | 0 W/m² | - |
| 1777864250 | 20° C | 50% | 1008.2 hPa | 0 mm | - | 0 W/m² | - |
| 1777863948 | 20° C | 49% | 1008.1 hPa | 0 mm | - | 0 W/m² | - |
| 1777863644 | 20° C | 48% | 1008.2 hPa | 0 mm | - | 0 W/m² | - |
* Rain latest hour (hover to see other rain measurements)
** Current wind speed in m/s (hover to see current wind gust speed)